Weather History for Denver, CO

Change the Weather History Date:

Thursday, May 30, 2013

  Actual Average (KDEN) Record (KDEN)
Temperature  
Mean Temperature 58 °F 62 °F  
Max Temperature 71 °F 77 °F 91 °F (2002)
Min Temperature 44 °F 47 °F 32 °F (1883)
Degree Days  
Heating Degree Days 8 5  
Month to date heating degree days 260  
Since 1 July heating degree days 5991  
Cooling Degree Days 0 2  
Month to date cooling degree days 16  
Year to date cooling degree days 17  
Growing Degree Days 8 (Base 50)    
Moisture  
Dew Point 30 °F    
Average Humidity 39    
Maximum Humidity 66    
Minimum Humidity 14    
Precipitation  
Precipitation 0.00 in 0.08 in 1.65 in (1879)
Month to date precipitation 2.04  
Year to date precipitation 5.45  
Snow  
Snow 0.00 in - - ()
Month to date snowfall  
Since 1 July snowfall  
Snow Depth -    
Sea Level Pressure  
Sea Level Pressure 29.77 in    
Wind  
Wind Speed 11 mph (WSW)    
Max Wind Speed 32 mph    
Max Gust Speed 41 mph    
Visibility 10 miles    
Events      
T = Trace of Precipitation, MM = Missing Value Source: NWS Daily Summary

Daily Weather History Graph

Daily Weather History Graph

Search for Another Location

Airport:

Trip Planner

Search our weather history database for the weather conditions in past years. The results will help you decide how hot, cold, wet, or windy it might be!

Date:

Astronomy

May. 30, 2013 Rise Set
Actual Time 5:32 AM MDT 8:19 PM MDT
Civil Twilight 5:00 AM MDT 8:51 PM MDT
Nautical Twilight 4:21 AM MDT 9:31 PM MDT
Astronomical Twilight 3:35 AM MDT 10:16 PM MDT
Moon 12:21 AM MDT (5/30) 11:43 AM MDT (5/30)
Length of Visible Light 15h 50m
Length of Day
14h 46m
Waning Gibbous, 61% of the Moon is Illuminated
May 30
Waning Gibbous
May 31
Last Quarter
Jun 8
New
Jun 16
First Quarter
Jun 23
Full

Hourly Weather History & Observations

Time (MDT) Temp. Windchill Dew Point Humidity Pressure Visibility Wind Dir Wind Speed Gust Speed Precip Events Conditions
12:16 AM 51.8 °F - 32.0 °F 47% 29.74 in 10.0 mi WNW 8.1 mph - N/A   Clear
12:37 AM 51.8 °F - 32.0 °F 47% 29.73 in 10.0 mi West 8.1 mph - N/A   Clear
12:56 AM 51.8 °F - 33.8 °F 50% 29.74 in 10.0 mi SW 6.9 mph - N/A   Clear
1:17 AM 53.6 °F - 32.0 °F 44% 29.72 in 10.0 mi SW 10.4 mph - N/A   Clear
1:37 AM 51.8 °F - 32.0 °F 47% 29.72 in 10.0 mi SW 8.1 mph - N/A   Clear
1:56 AM 51.8 °F - 32.0 °F 47% 29.72 in 10.0 mi SW 4.6 mph - N/A   Clear
2:17 AM 50.0 °F - 32.0 °F 50% 29.71 in 10.0 mi WNW 3.5 mph - N/A   Clear
2:37 AM 51.8 °F - 32.0 °F 47% 29.72 in 10.0 mi SW 8.1 mph - N/A   Clear
2:56 AM 50.0 °F - 33.8 °F 54% 29.72 in 10.0 mi SSW 5.8 mph - N/A   Scattered Clouds
3:17 AM 44.6 °F 42.2 °F 33.8 °F 66% 29.72 in 10.0 mi South 4.6 mph - N/A   Scattered Clouds
3:36 AM 46.4 °F 40.4 °F 32.0 °F 57% 29.70 in 10.0 mi SSW 13.8 mph - N/A   Scattered Clouds
3:57 AM 51.8 °F - 32.0 °F 47% 29.72 in 10.0 mi WSW 11.5 mph - N/A   Mostly Cloudy
4:17 AM 50.0 °F - 32.0 °F 50% 29.72 in 10.0 mi SW 11.5 mph - N/A   Mostly Cloudy
4:37 AM 50.0 °F - 32.0 °F 50% 29.72 in 10.0 mi SSW 10.4 mph - N/A   Scattered Clouds
4:56 AM 51.8 °F - 32.0 °F 47% 29.72 in 10.0 mi SW 9.2 mph - N/A   Scattered Clouds
5:17 AM 50.0 °F - 32.0 °F 50% 29.72 in 10.0 mi WSW 8.1 mph - N/A   Scattered Clouds
5:37 AM 48.2 °F - 33.8 °F 58% 29.72 in 10.0 mi West 9.2 mph - N/A   Scattered Clouds
5:57 AM 50.0 °F - 33.8 °F 54% 29.73 in 10.0 mi WSW 10.4 mph - N/A   Scattered Clouds
6:17 AM 51.8 °F - 33.8 °F 50% 29.73 in 10.0 mi WSW 6.9 mph - N/A   Scattered Clouds
6:36 AM 51.8 °F - 33.8 °F 50% 29.73 in 10.0 mi West 10.4 mph - N/A   Scattered Clouds
6:55 AM 53.6 °F - 33.8 °F 47% 29.73 in 10.0 mi West 11.5 mph - N/A   Clear
7:48 AM 60.8 °F - 30.2 °F 31% 29.73 in 50.0 mi West 20.7 mph 28.8 mph N/A   Scattered Clouds
8:52 AM 62.6 °F - 30.2 °F 30% 29.74 in 50.0 mi West 18.4 mph 23.0 mph N/A   Scattered Clouds
9:50 AM 64.4 °F - 28.4 °F 26% 29.74 in 50.0 mi West 16.1 mph 21.9 mph N/A   Partly Cloudy
10:59 AM 68.0 °F - 24.8 °F 20% 29.74 in 50.0 mi West 25.3 mph 32.2 mph N/A   Partly Cloudy
11:57 AM 68.0 °F - 24.8 °F 20% 29.74 in 50.0 mi West 32.2 mph 40.3 mph N/A   Partly Cloudy
12:48 PM 68.0 °F - 23.0 °F 18% 29.75 in 50.0 mi West 23.0 mph 41.4 mph N/A   Partly Cloudy
1:58 PM 69.8 °F - 24.8 °F 18% 29.75 in 50.0 mi West 26.5 mph 35.7 mph N/A   Scattered Clouds
2:58 PM 69.8 °F - 24.8 °F 18% 29.76 in 50.0 mi West 24.2 mph 41.4 mph N/A   Scattered Clouds
3:50 PM 69.8 °F - 23.0 °F 17% 29.76 in 50.0 mi West 23.0 mph 34.5 mph N/A   Scattered Clouds
4:48 PM 71.6 °F - 19.4 °F 14% 29.76 in 50.0 mi West 26.5 mph 40.3 mph N/A   Scattered Clouds
5:47 PM 71.6 °F - 19.4 °F 14% 29.76 in 50.0 mi West 26.5 mph 34.5 mph N/A   Scattered Clouds
6:47 PM 68.0 °F - 21.2 °F 17% 29.78 in 50.0 mi West 24.2 mph 35.7 mph N/A   Scattered Clouds
7:47 PM 64.4 °F - 24.8 °F 22% 29.82 in 50.0 mi WNW 16.1 mph 27.6 mph N/A   Scattered Clouds
8:47 PM 60.8 °F - 26.6 °F 27% 29.85 in 50.0 mi West 20.7 mph 27.6 mph N/A   Scattered Clouds
8:57 PM 60.8 °F - 28.4 °F 29% 29.85 in 10.0 mi West 19.6 mph 27.6 mph N/A   Clear
9:17 PM 59.0 °F - 28.4 °F 31% 29.86 in 10.0 mi West 12.7 mph - N/A   Clear
9:37 PM 57.2 °F - 30.2 °F 36% 29.87 in 10.0 mi West 12.7 mph - N/A   Clear
9:57 PM 55.4 °F - 32.0 °F 41% 29.88 in 10.0 mi WSW 12.7 mph - N/A   Clear
10:17 PM 53.6 °F - 32.0 °F 44% 29.89 in 10.0 mi WSW 10.4 mph - N/A   Clear
10:37 PM 51.8 °F - 32.0 °F 47% 29.90 in 10.0 mi Calm Calm - N/A   Clear
10:57 PM 51.8 °F - 32.0 °F 47% 29.90 in 10.0 mi Calm Calm - N/A   Scattered Clouds
11:17 PM 50.0 °F - 32.0 °F 50% 29.90 in 10.0 mi Calm Calm - N/A   Scattered Clouds
11:37 PM 51.8 °F - 32.0 °F 47% 29.91 in 10.0 mi WSW 3.5 mph - N/A   Clear
11:57 PM 50.0 °F - 32.0 °F 50% 29.92 in 10.0 mi West 4.6 mph - N/A   Clear